Location: Ago
(8.4667°N, 4.4833°E)
Time: 23:56:10
(UTC+00:00)

Cosmos 2112 Rocket - Pass Details

Date: 18 September 2020
Orbit: 756 x 787 km, 74.1° (Epoch: 20 October)

Event Time Altitude Azimuth Distance (km) Brightness Sun altitude
Rises 18:59:28 0° 353° (N) 3,215 7.4 -20.4°
Reaches altitude 10° 19:01:51 10° 356° (N) 2,295 6.6 -21.0°
Maximum altitude 19:07:00 63° 77° (ENE) 853 3.9 -22.3°
Enters shadow 19:08:21 46° 135° (SE) 1,020 4.3 -22.6°
